Moab, UT

5:20 AM MST on November 23, 2017 (GMT -0700)
Canyonlands

Weather History for KCNY - November, 2012

Change the Weather History Date:

Friday, November 30, 2012

  Actual Average Record
Temperature  
Mean Temperature 45 °F 32 °F  
Max Temperature 60 °F 42 °F 65 °F (1949)
Min Temperature 29 °F 21 °F 8 °F (2006)
Degree Days  
Heating Degree Days 20 33  
Month to date heating degree days 697 794  
Since 1 July heating degree days 1044 1209  
Cooling Degree Days 0 0  
Month to date cooling degree days 0 0  
Year to date cooling degree days 1513 1289  
Moisture  
Dew Point 25 °F    
Average Humidity 43    
Maximum Humidity 56    
Minimum Humidity 29    
Precipitation  
Precipitation 0.00 in 0.02 in 0.43 in (1954)
Month to date precipitation 0.06 0.69  
Year to date precipitation 2.66 8.20  
Snow  
Snow 0.00 in - - ()
Month to date snowfall  
Since 1 July snowfall  
Since 1 September snowfall  
Snow Depth -    
Sea Level Pressure  
Sea Level Pressure 30.03 in    
Wind  
Wind Speed 6 mph (SSE)    
Max Wind Speed 16 mph    
Max Gust Speed 22 mph    
Visibility 10 miles    
Events      
T = Trace of Precipitation, MM = Missing Value Source: NWS Daily Summary

Daily Weather History Graph

Daily Weather History Graph

Search for Another Location

Airport or City:

Trip Planner

Search our weather history database for the weather conditions in past years. The results will help you decide how hot, cold, wet, or windy it might be!

Date:

Astronomy

Nov. 30, 2012 Rise Set
Actual Time 7:17 AM MST 4:57 PM MST
Civil Twilight 6:48 AM MST 5:27 PM MST
Nautical Twilight 6:15 AM MST 6:00 PM MST
Astronomical Twilight 5:43 AM MST 6:32 PM MST
Moon 6:55 PM MST (11/30) 8:52 AM MST (11/30)
Length of Visible Light 10h 38m
Length of Day
9h 40m
Waning Gibbous, 96% of the Moon is Illuminated
Nov 30
Waning Gibbous
Dec 6
Last Quarter
Dec 13
New
Dec 19
First Quarter
Dec 28
Full

Hourly Weather History & Observations

Time (MST) Temp. Windchill Dew Point Humidity Pressure Visibility Wind Dir Wind Speed Gust Speed Precip Events Conditions
12:53 AM 28.9 °F - 9.0 °F 43% 30.13 in 10.0 mi Calm Calm - N/A   Clear
1:53 AM 33.1 °F - 18.0 °F 54% 30.10 in 10.0 mi Calm Calm - N/A   Clear
2:53 AM 30.9 °F - 16.0 °F 54% 30.10 in 10.0 mi Calm Calm - N/A   Clear
3:53 AM 36.0 °F - 19.9 °F 52% 30.07 in 10.0 mi Calm Calm - N/A   Clear
4:53 AM 37.0 °F - 19.9 °F 50% 30.07 in 10.0 mi Calm Calm - N/A   Clear
5:53 AM 35.1 °F 32.2 °F 19.9 °F 54% 30.09 in 10.0 mi East 3.5 mph - N/A   Clear
6:53 AM 35.1 °F 32.2 °F 21.0 °F 57% 30.11 in 10.0 mi East 3.5 mph - N/A   Clear
7:53 AM 35.1 °F - 21.0 °F 57% 30.14 in 10.0 mi Calm Calm - N/A   Clear
8:53 AM 39.9 °F - 23.0 °F 51% 30.14 in 10.0 mi Calm Calm - N/A   Clear
9:53 AM 48.0 °F - 26.1 °F 42% 30.10 in 10.0 mi East 4.6 mph - N/A   Clear
10:53 AM 54.0 °F - 28.0 °F 37% 30.08 in 10.0 mi SE 11.5 mph - N/A   Clear
11:53 AM 57.9 °F - 30.0 °F 35% 30.02 in 10.0 mi South 9.2 mph - N/A   Clear
12:53 PM 60.1 °F - 28.9 °F 31% 30.00 in 10.0 mi SSW 11.5 mph - N/A   Clear
1:53 PM 60.1 °F - 28.0 °F 30% 29.96 in 10.0 mi SSW 11.5 mph - N/A   Clear
2:53 PM 60.1 °F - 28.0 °F 30% 29.95 in 10.0 mi South 10.4 mph - N/A   Clear
3:53 PM 57.0 °F - 28.0 °F 33% 29.96 in 10.0 mi SSW 12.7 mph - N/A   Clear
4:53 PM 55.0 °F - 30.0 °F 38% 29.98 in 10.0 mi South 11.5 mph - N/A   Clear
5:53 PM 53.1 °F - 28.9 °F 40% 29.99 in 10.0 mi Calm Calm - N/A   Clear
6:53 PM 55.0 °F - 30.0 °F 38% 29.97 in 10.0 mi South 10.4 mph - N/A   Clear
7:53 PM 53.1 °F - 30.0 °F 41% 29.98 in 10.0 mi SE 5.8 mph - N/A   Overcast
8:53 PM 54.0 °F - 30.9 °F 41% 29.96 in 10.0 mi SSE 9.2 mph - N/A   Scattered Clouds
9:53 PM 55.9 °F - 30.9 °F 39% 29.92 in 10.0 mi South 15.0 mph - N/A   Mostly Cloudy
10:53 PM 55.9 °F - 28.9 °F 36% 29.91 in 10.0 mi South 11.5 mph - N/A   Mostly Cloudy
11:53 PM 54.0 °F - 28.9 °F 38% 29.93 in 10.0 mi SSW 9.2 mph - N/A   Overcast